www.pogodaiklimat.ru

Погода и климат >> Архив погоды >> Россия >> Якутия >> Колымская


ПОГОДА в Колымской

  • Прогноз погоды в Колымской
  • Монитор погоды в Колымской
  • Климат города

АРХИВ ПОГОДЫ в Колымской

Время (UTC), дата Ветер
(напр.,м/с)
 
Видим.   Явления Облачность Т
(С)
Тd
(С)
f
(%)
Тe
(С)
Тes
(С)
Комфортность P
(гПа)
Po
(гПа)
Тmin
(С)
Tmax
(С)
R
(мм)
R24
(мм)
S
(см)
09 10.12 З 4 20 км позёмок {метель} 10/0
[As op]
-28.5 -31.0 79 -39 -39 опасность
обморожения
1022.7 1021.0 -27.4
12 10.12 З 5 20 км позёмок {метель} 10/0
[As op]
-28.7 -31.9 74 -41 -41 опасность
обморожения
1022.8 1021.1
15 10.12 З 4 20 км {метель} 8/0
[As op]
-29.7 -32.8 74 -41 -41 опасность
обморожения
1023.1 1021.4
18 10.12 З 3 20 км {метель} 6/0
[As op]
-31.6 -34.5 75 -42 -42 опасность
обморожения
1022.5 1021.2
21 10.12 З 4 20 км 8/0
[As op]
-30.9 -33.9 75 -42 -42 опасность
обморожения
1022.7 1021.0 -31.8 39
00 11.12 З 4 10 км слабый снег 10/0
[As op]
-30.4 -33.4 75 -42 -42 опасность
обморожения
1022.3 1020.6
03 11.12 З 4 4000 м слабый снег 10/0
[As op]
-30.2 -33.2 75 -41 -41 опасность
обморожения
1022.8 1021.1
06 11.12 З 5 10 км слабый снег {метель} 10/0
[As op]
-29.4 -32.4 75 -42 -42 опасность
обморожения
1021.9 1020.2
09 11.12 З 4 10 км слабый снег {метель} 10/0
[As op]
-29.4 -32.4 75 -40 -40 опасность
обморожения
1021.9 1020.2 -29.3 0.0
12 11.12 З 4 10 км слабый снег 10/0
[As op]
-29.3 -32.4 74 -40 -40 опасность
обморожения
1021.7 1020.0
15 11.12 З 3 10 км слабый снег 10/0
[As op]
-29.5 -32.0 79 -39 -39 опасность
обморожения
1021.0 1019.4
18 11.12 ЮЗ 2 20 км {снег} 10/0
[As op]
-32.1 -35.0 75 -40 -40 опасность
обморожения
1021.0 1019.3
21 11.12 ЮЗ 3 20 км 3/0
[As trans]
-34.1 -37.8 69 -45 -45 опасность
обморожения
1021.1 1019.4 -34.2 0.2 39
00 12.12 ЮЗ 2 20 км 3/0
[Ac As Ci fib]
-34.2 -37.8 70 -42 -42 опасность
обморожения
1020.7 1019.0 -34.8
03 12.12 ЮЗ 2 20 км 3/0
[Ci fib]
-34.6 -38.1 70 -43 -43 опасность
обморожения
1020.2 1018.5
06 12.12 ЮЗ 2 20 км 3/0
[Ci fib]
-34.9 -38.4 70 -43 -43 опасность
обморожения
1019.8 1018.1
09 12.12 Ю 2 20 км 3/0
[Ci fib]
-35.0 -38.7 69 -43 -43 опасность
обморожения
1019.6 1017.9 -34.0
12 12.12 Ю 2 20 км 3/0
[Ci fib]
-34.2 -37.8 70 -42 -42 опасность
обморожения
1019.3 1017.6
15 12.12 Ю 2 20 км ясно -34.4 -38.1 69 -43 -43 опасность
обморожения
1018.2 1016.5
18 12.12 Ю 3 20 км ясно -34.4 -38.1 69 -45 -45 опасность
обморожения
1018.1 1016.4
21 12.12 Ю 2 20 км ясно -34.4 -38.1 69 -43 -43 опасность
обморожения
1017.6 1015.9 -35.1 39
00 13.12 Ю 3 20 км ясно -35.3 -39.0 69 -46 -46 опасность
обморожения
1017.6 1015.9 -35.4
03 13.12 ЮЗ 3 20 км ясно -35.5 -39.0 70 -46 -46 опасность
обморожения
1017.0 1015.3
06 13.12 ЮЗ 2 50 км ясно -35.2 -38.7 70 -44 -44 опасность
обморожения
1017.0 1015.3
09 13.12 ЮЗ 2 20 км ясно -35.8 -40.1 64 -44 -44 опасность
обморожения
1016.8 1015.1 -34.3
12 13.12 Ю 3 20 км ясно -34.9 -38.4 70 -46 -46 опасность
обморожения
1017.0 1015.3
15 13.12 Ю 3 20 км ясно -35.8 -39.4 69 -47 -47 опасность
обморожения
1016.9 1015.2
18 13.12 ЮЗ 3 20 км ясно -35.0 -38.7 69 -46 -46 опасность
обморожения
1016.7 1015.0
21 13.12 З 2 20 км ясно -37.1 -40.8 68 -46 -46 опасность
обморожения
1016.5 1014.8 -37.2 39
00 14.12 ЮЗ 1 20 км 6/0
[As trans]
-36.1 -39.7 69 -41 -41 опасность
обморожения
1016.3 1014.6
03 14.12 ЮЗ 2 20 км 3/0
[As trans]
-37.5 -41.2 68 -46 -46 опасность
обморожения
1015.9 1014.2
06 14.12 ЮЗ 1 20 км ясно -38.2 -41.6 70 -43 -43 опасность
обморожения
1015.4 1013.7
09 14.12 Ю 1 20 км ясно -38.2 -41.6 70 -43 -43 опасность
обморожения
1014.7 1013.0 -34.9
12 14.12 СВ 1 20 км ясно -39.7 -43.6 66 -45 -45 опасность
обморожения
1014.7 1013.0
15 14.12 В 2 20 км ясно -39.2 -43.2 66 -48 -48 опасность
обморожения
1013.8 1012.1
18 14.12 В 1 20 км ясно -39.1 -43.2 65 -44 -44 опасность
обморожения
1013.2 1011.5
21 14.12 В 1 20 км 8/0
[As trans]
-36.5 -40.8 64 -41 -41 опасность
обморожения
1012.6 1010.9 -39.8 39
00 15.12 штиль 0 20 км 3/0
[As op Ci fib]
-39.2 -43.9 61 -39 -39 опасность
обморожения
1012.4 1010.7
03 15.12 В 2 20 км 1/0 100 м
[Ci fib]
-39.6 -43.6 65 -49 -49 опасность
обморожения
1011.8 1010.1
06 15.12 В 1 20 км ясно -40.3 -45.3 59 -46 -46 опасность
обморожения
1011.6 1009.9
09 15.12 В 2 20 км ясно -40.6 -45.3 60 -50 -50 опасность
обморожения
1011.6 1009.9 -36.4
12 15.12 ЮВ 2 20 км ясно -40.3 -45.3 59 -49 -49 опасность
обморожения
1011.6 1009.9
15 15.12 штиль 0 20 км ясно -41.1 -45.9 60 -41 -41 опасность
обморожения
1011.4 1009.7
18 15.12 В 2 20 км ясно -40.9 -45.9 58 -50 -50 опасность
обморожения
1011.1 1009.4
21 15.12 ЮВ 2 20 км ясно -40.3 -45.3 59 -49 -49 опасность
обморожения
1011.2 1009.5 -41.1 39
00 16.12 В 1 20 км ясно -40.9 -45.9 58 -46 -46 опасность
обморожения
1011.2 1009.5
03 16.12 СВ 1 20 км ясно -41.0 -45.4 62 -46 -46 опасность
обморожения
1010.3 1008.6
06 16.12 штиль 0 20 км ясно -40.9 -45.9 58 -41 -41 опасность
обморожения
1010.3 1008.6
09 16.12 штиль 0 20 км 1/0
[Ci fib]
-41.0 -49.5 39 -41 -41 опасность
обморожения
1010.3 1008.6 -40.3
12 16.12 СЗ 1 20 км ясно -41.0 -45.9 59 -46 -46 опасность
обморожения
1010.1 1008.4
15 16.12 З 1 20 км ясно -41.1 -45.9 60 -46 -46 опасность
обморожения
1010.1 1008.4
18 16.12 ЮЗ 1 20 км ясно -41.2 -45.9 60 -47 -47 опасность
обморожения
1010.3 1008.6
21 16.12 З 1 10 км слабый снег 8/0
[As op]
-39.4 -43.6 64 -45 -45 опасность
обморожения
1011.1 1009.4 -41.5 0.0 39
00 17.12 З 2 10 км слабый снег 8/0
[As op]
-38.1 -41.6 69 -47 -47 опасность
обморожения
1011.5 1009.8
03 17.12 З 2 10 км слабый снег 10/0
[As op]
-36.5 -40.1 69 -45 -45 опасность
обморожения
1012.2 1010.5
06 17.12 З 2 10 км слабый снег 10/0
[As op]
-36.4 -40.1 68 -45 -45 опасность
обморожения
1013.0 1011.3

 

Местоположение метеостанции Колымская (Якутия, Россия): широта 68.72 долгота 158.60 высота над уровнем моря 12 м.

В архиве по умолчанию представлена погода в Колымской за последнюю неделю. Архивные данные за месяц целиком и за предыдущие месяцы, начиная с января 2011 года, Вы можете получить, выбрав интересующий диапазон дат из раскрывающегося списка и нажав кнопку "Ввод!".


*Определитесь, кто Вы:
робот инопланетянин человек

Внимание! Время в таблицах - всемирное. Для получения местного времени необходимо прибавить поправку, которая в Колымской равна 11 ч.

Смотрите также архив погоды в соседних городах и на ближайших метеорологических станциях:

Погода в Черском (Якутия, Россия) (109 км)
Погода в Константиновской (Чукотка, Россия) (120 км)
Погода в Анюйске (Чукотка, Россия) (125 км)
Погода в Андрюшкино (Якутия, Россия) (171 км)
Погода в Бухте Амбарчик (Чукотка, Россия) (177 км)
Погода на Островном (Чукотка, Россия) (235 км)
Погода в Среднеколымске (Якутия, Россия) (248 км)
Погода в Раучуе (Чукотка, Россия) (325 км)
Погода в Билибино (Чукотка, Россия) (328 км)
Погода в Баимке (Чукотка, Россия) (340 км)

Пояснения к столбцам:

Ветер - указаны скорость ветра в м/с - средняя за 10 мин, порывы в срок и между сроками (в фигурных скобках) и направление, откуда дует ветер: С - северный, СВ - северо-восточный, В - восточный, ЮВ - юго-восточный, Ю - южный, ЮЗ - юго-западный, З - западный, СЗ - северо-западный.
Видимость - горизонтальная дальность видимости в метрах или километрах. При видимости от 1 до 10 км при отсутствии осадков обычно наблюдается дымка, при ухудшении видимости до 1 км и менее - туман. В сухую погоду видимость может ухудшаться дымом, пылью или мглою.
Явления - указаны атмосферные явления, наблюдавшиеся в срок или в последний час перед сроком; фигурными скобками обозначены явления, наблюдавшиеся между сроками (за 1-3 часа до срока); квадратными скобками обозначены град или гололедные отложения с указанием их диаметра в мм.
Облачность - указаны через наклонную черту общая и нижняя облачность в баллах и высота нижней границы облаков в метрах; квадратными скобками обозначены формы облаков: Ci - перистые, Cs - перисто-слоистые, Cc - перисто-кучевые, Ac - высококучевые, As - высокослоистые, Sc - слоисто-кучевые, Ns - слоисто-дождевые, Cu - кучевые, Cb - кучево-дождевые. Подробнее классификацию облаков см. в Атласе облаков (PDF).
T - Температура воздуха - температура, измеренная на высоте 2 м над землей.
Td - Температура точки росы - температура, при понижении до которой содержащийся в воздухе водяной пар достигнет насыщения.
f - Относительная влажность воздуха - влажноcть воздуха, измеренная на высоте 2 м над землей.
Te - Эффективная температура - температура, которую ощущает одетый по сезону человек в тени. Характеристика душности погоды. При расчете учитывается влияние влажности воздуха и скорости ветра на теплоощущения человека.
Tes - Эффективная температура на солнце - температура, которую ощущает человек, с поправкой на солнечный нагрев. Характеристика знойности погоды. Зависит от высоты солнца над горизонтом, облачности и скорости ветра. Ночью, в пасмурную погоду, а также при ветре 12 м/с и более поправка равна нулю.
P - Атмосферное давление - приведенное к уровню моря атмосферное давление.
Po - Атмосферное давление - измеренное на уровне метеостанции атмосферное давление.
Tmin - Минимальная температура - минимум температуры воздуха на высоте 2 м над землей.
Tmax - Максимальная температура - максимум температуры воздуха на высоте 2 м над землей.
R - Количество осадков - Количество выпавших осадков за период времени, мм. При наведении курсора мыши на число - период времени, за который выпало указанное количество осадков.
R24 - Количество осадков - Количество выпавших осадков за 24 часа, мм.
S - Снежный покров - Высота снежного покрова, см. При наведении курсора мыши на число - состояние снежного покрова и степень покрытия местности в баллах.